TimePDT,TemperatureF,Dew PointF,Humidity,Sea Level PressureIn,VisibilityMPH,Wind Direction,Wind SpeedMPH,Gust SpeedMPH,PrecipitationIn,Events,Conditions,WindDirDegrees,DateUTC
12:00 AM,66.2,57.2,73,29.96,9.0,SSE,4.6,-,N/A,,Mostly Cloudy,160,2013-08-02 07:00:00
12:53 AM,66.0,57.0,73,29.95,10.0,South,4.6,-,N/A,,Overcast,170,2013-08-02 07:53:00
1:53 AM,66.9,57.0,70,29.94,10.0,East,3.5,-,N/A,,Overcast,100,2013-08-02 08:53:00
2:53 AM,66.0,55.9,70,29.93,10.0,SSE,5.8,-,N/A,,Overcast,150,2013-08-02 09:53:00
3:53 AM,66.0,57.0,73,29.92,10.0,SE,3.5,-,N/A,,Overcast,130,2013-08-02 10:53:00
4:53 AM,64.9,55.9,73,29.92,10.0,Calm,Calm,-,N/A,,Overcast,0,2013-08-02 11:53:00
5:53 AM,64.9,57.0,75,29.93,10.0,Calm,Calm,-,N/A,,Overcast,0,2013-08-02 12:53:00
6:53 AM,66.0,55.9,70,29.93,8.0,ENE,3.5,-,N/A,,Overcast,70,2013-08-02 13:53:00
7:53 AM,66.9,57.0,70,29.95,7.0,Variable,4.6,-,N/A,,Overcast,0,2013-08-02 14:53:00
8:19 AM,66.2,57.2,73,29.96,8.0,South,5.8,-,N/A,,Overcast,190,2013-08-02 15:19:00
8:53 AM,68.0,55.9,65,29.96,8.0,South,5.8,-,N/A,,Overcast,180,2013-08-02 15:53:00
9:53 AM,69.1,57.0,65,29.96,7.0,Calm,Calm,-,N/A,,Overcast,0,2013-08-02 16:53:00
10:33 AM,73.4,57.2,57,29.96,9.0,NNE,3.5,-,N/A,,Scattered Clouds,30,2013-08-02 17:33:00
10:53 AM,73.9,57.0,55,29.95,8.0,Variable,4.6,-,N/A,,Scattered Clouds,0,2013-08-02 17:53:00
11:53 AM,77.0,57.0,50,29.95,8.0,SSW,10.4,-,N/A,,Mostly Cloudy,210,2013-08-02 18:53:00
12:53 PM,75.9,57.0,52,29.94,9.0,SSW,11.5,-,N/A,,Mostly Cloudy,200,2013-08-02 19:53:00
1:53 PM,75.0,57.0,53,29.94,10.0,WSW,8.1,-,N/A,,Mostly Cloudy,240,2013-08-02 20:53:00
2:53 PM,75.0,57.0,53,29.93,10.0,SW,6.9,-,N/A,,Mostly Cloudy,220,2013-08-02 21:53:00
3:53 PM,75.9,57.0,52,29.91,10.0,SW,9.2,-,N/A,,Mostly Cloudy,230,2013-08-02 22:53:00
4:53 PM,75.0,57.0,53,29.91,10.0,SW,10.4,-,N/A,,Mostly Cloudy,230,2013-08-02 23:53:00
5:53 PM,73.0,57.0,57,29.91,10.0,WSW,6.9,-,N/A,,Mostly Cloudy,240,2013-08-03 00:53:00
6:53 PM,71.1,57.9,63,29.92,10.0,SSW,9.2,-,N/A,,Mostly Cloudy,210,2013-08-03 01:53:00
7:53 PM,69.1,57.9,68,29.92,10.0,SSW,8.1,-,N/A,,Mostly Cloudy,210,2013-08-03 02:53:00
8:53 PM,69.1,59.0,70,29.94,10.0,WSW,4.6,-,N/A,,Clear,240,2013-08-03 03:53:00
9:53 PM,68.0,59.0,73,29.97,10.0,SSW,5.8,-,N/A,,Mostly Cloudy,210,2013-08-03 04:53:00
10:50 PM,66.2,57.2,73,29.97,10.0,SSW,6.9,-,N/A,,Mostly Cloudy,210,2013-08-03 05:50:00
10:53 PM,66.9,57.9,73,29.97,10.0,SSW,4.6,-,N/A,,Mostly Cloudy,210,2013-08-03 05:53:00
11:53 PM,68.0,57.9,70,29.97,10.0,West,3.5,-,N/A,,Mostly Cloudy,260,2013-08-03 06:53:00